Weather Roundup
Issued by NWS Chicago, IL

Home | Current Version | Previous Version | Graphics & Text | Print | Product List | Glossary On
Versions: 1 2 3 4 5 6 7 8 9 10 11 12 13 14 15 16 17 18 19 20 21 22 23 24 25 26 27 28 29 30 31 32 33 34 35 36 37 38 39 40 41 42 43 44 45 46 47 48 49 50
000
NZUS59 KLOT 301808
HRRLOT

CHICAGO AREA WEATHER ROUNDUP
NATIONAL WEATHER SERVICE CHICAGO/ROMEOVILLE IL
100 PM CDT SUN AUG 30 2015

NOTE: "FAIR" INDICATES FEW OR NO CLOUDS BELOW 12,000 FEET WITH NO
SIGNIFICANT WEATHER AND/OR OBSTRUCTIONS TO VISIBILITY.

* THESE STATIONS ARE NOT UNDER NWS QUALITY CONTROL. THEY ALSO MAY NOT
  REPORT WEATHER SUCH AS PRECIPITATION OR FOG.

ILZ005-006-012>014-019>023-301900-
NORTHEAST ILLINOIS

CITY           SKY/WX    TMP DP  RH WIND       PRES   REMARKS
OHARE          CLOUDY    70  63  78 CALM      30.07F
6HR MIN TEMP:  65; 6HR MAX TEMP:  71;

MIDWAY         PTSUNNY   75  63  66 VRB5      30.07F
6HR MIN TEMP:  67; 6HR MAX TEMP:  76;

AURORA         CLOUDY    74  63  68 CALM      30.08F
6HR MIN TEMP:  63; 6HR MAX TEMP:  74;

LANSING*       CLOUDY    73  65  74 CALM      30.08S
JOLIET*        CLOUDY    76  66  70 CALM      30.08F
WAUKEGAN       CLOUDY    70  64  81 CALM      30.07F
6HR MIN TEMP:  63; 6HR MAX TEMP:  71;

DUPAGE AIRPORT CLOUDY    72  61  68 W6        30.08S
6HR MIN TEMP:  65; 6HR MAX TEMP:  73;

WHEELING       CLOUDY    72  63  73 CALM      30.09F
6HR MIN TEMP:  65; 6HR MAX TEMP:  72;

KANKAKEE*      CLOUDY    75  69  80 CALM      30.08F
MORRIS*        CLOUDY    74  65  75 CALM      30.06F
LEWIS AIRPORT* CLOUDY    74  62  68 CALM      30.08F
NORTHERLY IS     N/A     67  64  90 NE3         N/A
$$

WIZ051-052-058>065-066-070>072-301900-
SOUTHEAST WISCONSIN

CITY           SKY/WX    TMP DP  RH WIND       PRES   REMARKS
MILWAUKEE      CLOUDY    69  62  78 E6        30.08S
6HR MIN TEMP:  63; 6HR MAX TEMP:  70;

KENOSHA*       CLOUDY    70  63  78 CALM      30.08F
RACINE*        CLOUDY    70  62  76 N6        30.09F
BURLINGTON     CLOUDY    70  60  70 CALM      30.08F
WAUKESHA       CLOUDY    66  61  82 CALM      30.10F
WEST BEND      CLOUDY    70  59  68 SW5       30.08S
$$

INZ001>003-010>013-019-020-301900-
NORTHWEST INDIANA

CITY           SKY/WX    TMP DP  RH WIND       PRES   REMARKS
GARY*          PTSUNNY   73  63  68 CALM      30.08F
MICHIGAN CITY* NOT AVBL
RENSSELAER*    NOT AVBL
VALPARAISO     CLOUDY    75  68  78 W5        30.08F
$$

LMZ740>746-301900-
SOUTHERN LAKE MICHIGAN

STATION/POSITION TIME  SKY/WX   TEMP WIND        PRES    VSBY
                                AIR  DIR/SP/G
                 (UTC)          (F)  (DEG/KT/KT) (MB)    (MI)
HARRISON CRIB    1700            63  350/  9/  9   N/A
BURNHAM HARBOR   1800            68   10/  5/  8   N/A
CALUMET HARBOR   NOT AVBL
BURNS HARBOR     1700            68  330/  6/  7 1019.3S
MICHIGAN CITY    1700            70  280/  5/  6   N/A
$$

ABBREVIATIONS USED IN REMARKS
   TC - TEMPERATURE IN CELSIUS
  WCI - WIND CHILL INDEX
   HX - HEAT INDEX
  VSB - VISIBILITY
$$


USA.gov is the U.S. government's official web portal to all federal, state and local government web resources and services.